| time (UTC) | temp F | wind direction | speed MPH | gust MPH | rain 1hr in | rain 24hr in | rain mn in | humidity % | barometer mb |
| 20260906091042 | 58 | 344 | 0.0 | 0.0 | 0.00 | 0.01 | 0.00 | 87 | 1013.7 |
| 20260906090044 | 58 | 344 | 0.0 | 0.0 | 0.00 | 0.01 | 0.00 | 87 | 1013.7 |
| 20260906085042 | 58 | 344 | 0.0 | 0.0 | 0.00 | 0.01 | 0.00 | 87 | 1013.9 |
| 20260906084042 | 59 | 344 | 0.0 | 0.0 | 0.00 | 0.01 | 0.00 | 87 | 1013.9 |
| 20260906083042 | 59 | 344 | 0.0 | 0.0 | 0.00 | 0.01 | 0.00 | 87 | 1013.9 |
| 20260906082040 | 59 | 340 | 0.0 | 0.0 | 0.00 | 0.01 | 0.00 | 87 | 1013.8 |
| 20260906081532 | 59 | 340 | 0.0 | 0.0 | 0.00 | 0.01 | 0.00 | 87 | 1013.7 |
| 20260906080515 | 59 | 333 | 0.0 | 0.0 | 0.00 | 0.01 | 0.00 | 87 | 1013.8 |
| 20260906075925 | 59 | 334 | 0.0 | 0.0 | 0.00 | 0.01 | 0.00 | 86 | 1013.8 |
| 20260906075231 | 59 | 334 | 0.0 | 0.0 | 0.00 | 0.01 | 0.00 | 87 | 1013.8 |
| 20260906073042 | 60 | 348 | 0.0 | 0.0 | 0.00 | 0.01 | 0.00 | 86 | 1013.9 |
| 20260906072528 | 60 | 323 | 0.0 | 0.0 | 0.00 | 0.01 | 0.00 | 86 | 1014.0 |
| 20260906071226 | 60 | 301 | 0.0 | 0.0 | 0.00 | 0.01 | 0.00 | 85 | 1013.7 |
| 20260906070931 | 60 | 315 | 0.0 | 0.0 | 0.00 | 0.01 | 0.00 | 85 | 1013.6 |
| 20260906065038 | 60 | 311 | 0.0 | 0.0 | 0.00 | 0.01 | 0.01 | 84 | 1013.5 |
| 20260906064038 | 60 | 320 | 0.0 | 0.0 | 0.00 | 0.01 | 0.01 | 84 | 1013.6 |
| 20260906063041 | 60 | 290 | 0.0 | 1.0 | 0.00 | 0.01 | 0.01 | 84 | 1013.6 |
| 20260906062039 | 60 | 294 | 0.0 | 0.0 | 0.00 | 0.01 | 0.01 | 83 | 1013.7 |
| 20260906061527 | 60 | 327 | 0.0 | 0.0 | 0.00 | 0.01 | 0.01 | 83 | 1013.8 |
| 20260906060044 | 61 | 340 | 0.0 | 1.0 | 0.00 | 0.01 | 0.01 | 83 | 1013.7 |
| 20260906055041 | 61 | 314 | 0.0 | 0.0 | 0.00 | 0.01 | 0.01 | 82 | 1013.7 |
| 20260906054038 | 61 | 252 | 0.0 | 0.0 | 0.00 | 0.01 | 0.01 | 82 | 1013.7 |
| 20260906053039 | 61 | 334 | 0.0 | 0.0 | 0.00 | 0.01 | 0.01 | 81 | 1013.8 |
| 20260906052533 | 61 | 300 | 0.0 | 1.0 | 0.00 | 0.01 | 0.01 | 81 | 1013.9 |
| 20260906051031 | 62 | 338 | 0.0 | 4.0 | 0.00 | 0.01 | 0.01 | 80 | 1013.8 |
| 20260906050528 | 62 | 304 | 0.0 | 3.0 | 0.00 | 0.01 | 0.01 | 80 | 1013.9 |
| 20260906045032 | 62 | 292 | 0.0 | 1.0 | 0.00 | 0.01 | 0.01 | 79 | 1013.8 |
| 20260906044032 | 62 | 337 | 0.0 | 0.0 | 0.00 | 0.01 | 0.01 | 79 | 1013.8 |
| 20260906043032 | 62 | 320 | 0.0 | 4.0 | 0.00 | 0.01 | 0.01 | 78 | 1013.9 |
| 20260906042032 | 63 | 284 | 0.0 | 1.0 | 0.00 | 0.01 | 0.01 | 77 | 1013.9 |
| 20260906041030 | 63 | 348 | 0.0 | 2.0 | 0.00 | 0.01 | 0.01 | 77 | 1013.9 |
| 20260906040029 | 63 | 313 | 0.0 | 1.0 | 0.00 | 0.01 | 0.01 | 76 | 1013.9 |
| 20260906035030 | 64 | 297 | 0.0 | 1.0 | 0.00 | 0.01 | 0.01 | 74 | 1013.8 |
| 20260906034029 | 64 | 331 | 0.0 | 1.0 | 0.00 | 0.01 | 0.01 | 73 | 1013.7 |
| 20260906033026 | 64 | 302 | 0.0 | 1.0 | 0.00 | 0.01 | 0.01 | 73 | 1013.7 |
| 20260906032028 | 65 | 326 | 0.0 | 1.0 | 0.00 | 0.02 | 0.01 | 72 | 1013.6 |
| 20260906031025 | 65 | 300 | 0.0 | 8.0 | 0.00 | 0.03 | 0.01 | 71 | 1013.4 |
| 20260906030023 | 65 | 322 | 0.0 | 10.0 | 0.00 | 0.05 | 0.01 | 71 | 1013.4 |
| 20260906025023 | 66 | 281 | 1.0 | 8.0 | 0.00 | 0.05 | 0.01 | 70 | 1013.3 |
| 20260906024024 | 66 | 309 | 0.0 | 3.0 | 0.00 | 0.05 | 0.01 | 68 | 1013.3 |
| 20260906023024 | 66 | 335 | 0.0 | 3.0 | 0.00 | 0.05 | 0.01 | 67 | 1013.4 |
| 20260906022509 | 67 | 340 | 1.0 | 8.0 | 0.00 | 0.06 | 0.01 | 66 | 1013.4 |
| 20260906021025 | 67 | 301 | 0.0 | 2.0 | 0.00 | 0.06 | 0.01 | 66 | 1013.4 |
| 20260906020026 | 67 | 300 | 1.0 | 6.0 | 0.00 | 0.06 | 0.01 | 63 | 1013.4 |
| 20260906015020 | 68 | 308 | 0.0 | 7.0 | 0.00 | 0.06 | 0.01 | 57 | 1013.4 |
| 20260906014020 | 68 | 296 | 0.0 | 4.0 | 0.00 | 0.06 | 0.01 | 56 | 1013.4 |
| 20260906013511 | 69 | 314 | 0.0 | 3.0 | 0.00 | 0.06 | 0.01 | 55 | 1013.4 |
| 20260906012018 | 69 | 342 | 0.0 | 6.0 | 0.00 | 0.06 | 0.01 | 53 | 1013.3 |
| 20260906011016 | 69 | 284 | 0.0 | 2.0 | 0.00 | 0.06 | 0.01 | 53 | 1013.1 |
| 20260906010013 | 70 | 310 | 0.0 | 4.0 | 0.00 | 0.06 | 0.01 | 51 | 1013.1 |
| 20260906005015 | 71 | 348 | 0.0 | 1.0 | 0.00 | 0.07 | 0.01 | 49 | 1013.1 |
| 20260906004018 | 70 | 30 | 0.0 | 1.0 | 0.00 | 0.08 | 0.01 | 48 | 1013.3 |
| 20260906003015 | 71 | 324 | 0.0 | 1.0 | 0.00 | 0.08 | 0.01 | 49 | 1013.3 |
| 20260906002012 | 71 | 121 | 0.0 | 4.0 | 0.00 | 0.09 | 0.01 | 49 | 1013.3 |
| 20260906001012 | 71 | 302 | 0.0 | 3.0 | 0.00 | 0.11 | 0.01 | 49 | 1013.3 |
| 20260906000456 | 71 | 324 | 0.0 | 3.0 | 0.00 | 0.13 | 0.01 | 48 | 1013.1 |
| 20260905235007 | 72 | 348 | 0.0 | 2.0 | 0.00 | 0.14 | 0.01 | 47 | 1013.2 |
| 20260905234005 | 72 | 312 | 0.0 | 4.0 | 0.00 | 0.14 | 0.01 | 49 | 1013.1 |
| 20260905233005 | 72 | 340 | 0.0 | 4.0 | 0.00 | 0.15 | 0.01 | 49 | 1013.3 |
| 20260905232005 | 72 | 300 | 0.0 | 3.0 | 0.00 | 0.15 | 0.01 | 50 | 1013.3 |
| 20260905231004 | 72 | 338 | 0.0 | 3.0 | 0.00 | 0.16 | 0.01 | 51 | 1013.5 |
| 20260905230003 | 71 | 288 | 0.0 | 1.0 | 0.00 | 0.19 | 0.01 | 50 | 1013.6 |
| 20260905225004 | 71 | 313 | 0.0 | 1.0 | 0.00 | 0.21 | 0.01 | 52 | 1013.7 |
| 20260905224004 | 70 | 301 | 0.0 | 1.0 | 0.00 | 0.21 | 0.01 | 53 | 1013.8 |
| 20260905223003 | 70 | 275 | 1.0 | 10.0 | 0.00 | 0.23 | 0.01 | 53 | 1013.8 |
| 20260905222007 | 70 | 346 | 1.0 | 3.0 | 0.00 | 0.25 | 0.01 | 52 | 1013.8 |
| 20260905221004 | 70 | 336 | 1.0 | 8.0 | 0.00 | 0.26 | 0.01 | 52 | 1013.8 |
| 20260905220004 | 71 | 304 | 0.0 | 3.0 | 0.00 | 0.27 | 0.01 | 53 | 1013.8 |
| 20260905215008 | 70 | 71 | 1.0 | 5.0 | 0.00 | 0.28 | 0.01 | 56 | 1014.0 |
| 20260905214007 | 69 | 289 | 0.0 | 8.0 | 0.00 | 0.29 | 0.01 | 56 | 1014.0 |
| 20260905213444 | 69 | 312 | 1.0 | 5.0 | 0.00 | 0.30 | 0.01 | 56 | 1014.2 |
| 20260905212001 | 69 | 284 | 0.0 | 4.0 | 0.00 | 0.32 | 0.01 | 57 | 1014.2 |
| 20260905211001 | 71 | 302 | 0.0 | 3.0 | 0.00 | 0.33 | 0.01 | 57 | 1014.4 |
| 20260905210003 | 70 | 284 | 0.0 | 3.0 | 0.00 | 0.33 | 0.01 | 55 | 1014.5 |
| 20260905205002 | 71 | 294 | 0.0 | 2.0 | 0.00 | 0.33 | 0.01 | 56 | 1014.5 |
| 20260905204000 | 70 | 154 | 0.0 | 4.0 | 0.00 | 0.33 | 0.01 | 57 | 1014.5 |
| 20260905203446 | 70 | 167 | 0.0 | 1.0 | 0.00 | 0.33 | 0.01 | 58 | 1014.8 |
| 20260905202003 | 69 | 212 | 0.0 | 0.0 | 0.00 | 0.33 | 0.01 | 61 | 1014.5 |
| 20260905201002 | 68 | 331 | 0.0 | 1.0 | 0.00 | 0.33 | 0.01 | 62 | 1014.7 |
| 20260905200002 | 68 | 229 | 0.0 | 1.0 | 0.00 | 0.33 | 0.01 | 62 | 1014.9 |
| 20260905195451 | 67 | 327 | 0.0 | 2.0 | 0.00 | 0.33 | 0.01 | 63 | 1015.1 |
| 20260905194445 | 67 | 134 | 0.0 | 5.0 | 0.00 | 0.33 | 0.01 | 67 | 1015.4 |
| 20260905192957 | 66 | 205 | 0.0 | 1.0 | 0.00 | 0.33 | 0.01 | 68 | 1015.4 |
| 20260905191954 | 66 | 300 | 0.0 | 1.0 | 0.00 | 0.33 | 0.01 | 69 | 1015.4 |
| 20260905190954 | 65 | 146 | 0.0 | 0.0 | 0.00 | 0.33 | 0.01 | 71 | 1015.4 |
| 20260905185954 | 64 | 286 | 0.0 | 2.0 | 0.00 | 0.33 | 0.01 | 74 | 1015.3 |
| 20260905184955 | 63 | 298 | 0.0 | 0.0 | 0.00 | 0.33 | 0.01 | 75 | 1015.5 |
| 20260905183956 | 63 | 299 | 0.0 | 4.0 | 0.00 | 0.33 | 0.01 | 77 | 1015.5 |
| 20260905182948 | 63 | 284 | 0.0 | 0.0 | 0.00 | 0.33 | 0.01 | 77 | 1015.6 |
| 20260905182430 | 62 | 216 | 0.0 | 2.0 | 0.00 | 0.33 | 0.01 | 80 | 1015.6 |
| 20260905180946 | 61 | 152 | 0.0 | 0.0 | 0.00 | 0.33 | 0.01 | 84 | 1015.6 |
| 20260905175946 | 60 | 273 | 0.0 | 0.0 | 0.00 | 0.34 | 0.01 | 86 | 1015.7 |
| 20260905175425 | 59 | 161 | 0.0 | 0.0 | 0.00 | 0.34 | 0.01 | 90 | 1015.8 |
| 20260905174434 | 58 | 165 | 0.0 | 0.0 | 0.00 | 0.34 | 0.01 | 90 | 1015.8 |
| 20260905172949 | 58 | 206 | 0.0 | 0.0 | 0.00 | 0.34 | 0.01 | 93 | 1015.9 |
| 20260905172907 | 57 | 157 | 0.0 | 1.0 | 0.00 | 0.34 | 0.01 | 96 | 1015.8 |
| 20260905170947 | 56 | 150 | 0.0 | 0.0 | 0.00 | 0.34 | 0.01 | 96 | 1015.9 |
| 20260905170419 | 55 | 171 | 0.0 | 0.0 | 0.00 | 0.35 | 0.01 | 96 | 1015.8 |
| 20260905164944 | 55 | 148 | 0.0 | 1.0 | 0.00 | 0.36 | 0.01 | 96 | 1015.7 |
| 20260905163942 | 54 | 141 | 0.0 | 1.0 | 0.00 | 0.36 | 0.01 | 96 | 1015.6 |
| 20260905162942 | 54 | 159 | 0.0 | 1.0 | 0.00 | 0.36 | 0.01 | 96 | 1015.7 |
| 20260905162430 | 53 | 223 | 0.0 | 1.0 | 0.00 | 0.36 | 0.01 | 96 | 1015.6 |
| 20260905160942 | 53 | 24 | 0.0 | 0.0 | 0.00 | 0.36 | 0.01 | 96 | 1015.7 |
| 20260905155943 | 53 | 148 | 0.0 | 0.0 | 0.00 | 0.36 | 0.01 | 96 | 1015.8 |
| 20260905154942 | 53 | 167 | 0.0 | 0.0 | 0.00 | 0.36 | 0.01 | 97 | 1015.9 |
| 20260905153936 | 53 | 208 | 0.0 | 1.0 | 0.00 | 0.36 | 0.01 | 96 | 1016.0 |
| 20260905152936 | 53 | 209 | 0.0 | 0.0 | 0.00 | 0.36 | 0.01 | 97 | 1016.0 |
| 20260905151937 | 52 | 189 | 0.0 | 0.0 | 0.00 | 0.36 | 0.01 | 97 | 1016.1 |
| 20260905150934 | 52 | 181 | 0.0 | 0.0 | 0.00 | 0.36 | 0.01 | 97 | 1016.2 |
| 20260905145935 | 52 | 157 | 0.0 | 0.0 | 0.00 | 0.36 | 0.01 | 96 | 1016.2 |
| 20260905144938 | 52 | 178 | 0.0 | 0.0 | 0.00 | 0.36 | 0.01 | 96 | 1016.2 |
| 20260905143934 | 51 | 200 | 0.0 | 1.0 | 0.00 | 0.36 | 0.01 | 96 | 1016.1 |
| 20260905142936 | 51 | 207 | 0.0 | 1.0 | 0.00 | 0.36 | 0.01 | 96 | 1016.0 |
| 20260905141938 | 51 | 207 | 0.0 | 2.0 | 0.00 | 0.36 | 0.01 | 96 | 1016.0 |
| 20260905140933 | 51 | 228 | 0.0 | 0.0 | 0.00 | 0.36 | 0.01 | 96 | 1015.9 |
| 20260905140410 | 51 | 164 | 0.0 | 1.0 | 0.00 | 0.36 | 0.01 | 96 | 1015.8 |
| 20260905134930 | 51 | 173 | 0.0 | 0.0 | 0.00 | 0.36 | 0.01 | 96 | 1015.7 |
| 20260905133930 | 51 | 188 | 0.0 | 0.0 | 0.00 | 0.36 | 0.01 | 96 | 1015.7 |
| 20260905133412 | 51 | 182 | 0.0 | 0.0 | 0.00 | 0.36 | 0.01 | 96 | 1015.6 |
| 20260905132423 | 52 | 144 | 0.0 | 0.0 | 0.00 | 0.36 | 0.01 | 96 | 1015.7 |
| 20260905130931 | 52 | 161 | 0.0 | 2.0 | 0.00 | 0.36 | 0.01 | 96 | 1015.6 |
| 20260905130423 | 52 | 265 | 0.0 | 1.0 | 0.00 | 0.36 | 0.01 | 96 | 1015.6 |
| 20260905124930 | 52 | 227 | 0.0 | 1.0 | 0.00 | 0.36 | 0.01 | 96 | 1015.4 |
| 20260905123929 | 52 | 246 | 0.0 | 1.0 | 0.00 | 0.36 | 0.01 | 96 | 1015.3 |
| 20260905122929 | 52 | 235 | 0.0 | 0.0 | 0.00 | 0.36 | 0.01 | 96 | 1015.3 |
| 20260905121932 | 53 | 160 | 0.0 | 0.0 | 0.00 | 0.36 | 0.01 | 96 | 1015.3 |
| 20260905120931 | 53 | 160 | 0.0 | 0.0 | 0.00 | 0.36 | 0.01 | 96 | 1015.3 |
| 20260905115929 | 53 | 160 | 0.0 | 0.0 | 0.00 | 0.36 | 0.01 | 96 | 1015.5 |
| 20260905114929 | 53 | 161 | 0.0 | 1.0 | 0.00 | 0.36 | 0.01 | 96 | 1015.4 |
| 20260905113929 | 53 | 187 | 0.0 | 0.0 | 0.00 | 0.36 | 0.01 | 96 | 1015.3 |
| 20260905112929 | 53 | 150 | 0.0 | 0.0 | 0.01 | 0.36 | 0.01 | 96 | 1015.4 |
| 20260905111933 | 53 | 147 | 0.0 | 1.0 | 0.01 | 0.36 | 0.01 | 96 | 1015.2 |
| 20260905111412 | 53 | 170 | 0.0 | 2.0 | 0.01 | 0.36 | 0.01 | 96 | 1015.2 |
| 20260905105930 | 53 | 163 | 0.0 | 1.0 | 0.01 | 0.36 | 0.01 | 96 | 1015.1 |
| 20260905105420 | 54 | 167 | 0.0 | 0.0 | 0.01 | 0.36 | 0.01 | 96 | 1015.1 |
| 20260905103928 | 54 | 167 | 0.0 | 1.0 | 0.01 | 0.36 | 0.01 | 96 | 1015.2 |
| 20260905102928 | 54 | 159 | 0.0 | 0.0 | 0.00 | 0.35 | 0.00 | 96 | 1015.2 |
| 20260905101926 | 54 | 76 | 0.0 | 0.0 | 0.00 | 0.35 | 0.00 | 96 | 1015.5 |
| 20260905100926 | 54 | 215 | 0.0 | 0.0 | 0.00 | 0.35 | 0.00 | 96 | 1015.6 |
| 20260905095930 | 54 | 215 | 0.0 | 0.0 | 0.00 | 0.36 | 0.00 | 96 | 1015.4 |
| 20260905094926 | 54 | 214 | 0.0 | 0.0 | 0.00 | 0.36 | 0.00 | 96 | 1015.3 |
| 20260905093926 | 55 | 214 | 0.0 | 0.0 | 0.00 | 0.36 | 0.00 | 96 | 1015.3 |
| 20260905092926 | 55 | 215 | 0.0 | 0.0 | 0.00 | 0.36 | 0.00 | 96 | 1015.3 |
| 20260905091927 | 55 | 214 | 0.0 | 0.0 | 0.00 | 0.36 | 0.00 | 96 | 1015.3 |